[[{"header":{"parameterUnit":"m.s-1","parameterCategory":2,"la1":30.2991,"la2":30.254,"lo1":-89.0895,"lo2":-89.0444,"dy":0.0017,"dx":0.0017,"nx":28,"ny":28,"refTime":"2023-09-14T09:00:00:Z","depth":"0","parameterNumber":2,"parameterNumberName":"U-component_of_CURRENTS"},"data":[0,0,0,0,0,0,0,0,0,0,0,0,0,0,0,0,0,0,0,0,0,0,0,0,0,0,0,0,0,0,0,0,0,0,0,0,0,0,0,0,0,0,0,0,0,0,0,0,0,0,0,0,0,0,0,0,0,0,-0.1832,-0.1832,0,-0.1879,-0.1879,-0.188,-0.1876,-0.1876,-0.1875,-0.1874,-0.1878,-0.1879,-0.1879,0,0,0,0,0,0,0,0,0,0,0,0,0,-0.1763,-0.1765,-0.1832,-0.1833,-0.1833,-0.1879,-0.1879,-0.188,-0.1877,-0.1876,-0.1875,-0.1874,-0.1878,-0.1879,-0.1879,0,0,0,0,0,0,0,0,0,0,0,0,0,-0.18,-0.1765,-0.1832,-0.1837,-0.1838,-0.1879,-0.1879,-0.188,-0.1877,-0.1876,-0.1875,-0.1874,-0.1877,-0.1878,-0.188,-0.1907,0,0,-0.1883,-0.1883,0,0,0,0,0,0,0,0,-0.1798,-0.1802,-0.1836,-0.1837,-0.1838,-0.1871,-0.1857,-0.1887,-0.1877,-0.1862,-0.1874,-0.1873,-0.1872,-0.1874,-0.1885,-0.1907,-0.1907,-0.1883,-0.1884,-0.1884,-0.1884,0,0,0,0,0,0,0,-0.1795,-0.18,-0.185,-0.1836,-0.1838,-0.1845,-0.1849,-0.1863,-0.1871,-0.1863,-0.1863,-0.1869,-0.1873,-0.1884,-0.1885,-0.1907,-0.1883,-0.1884,-0.1885,-0.1885,-0.1975,-0.1976,0,0,0,0,0,0,-0.179,-0.1798,-0.1849,-0.1852,-0.1815,-0.1847,-0.1852,-0.1861,-0.1872,-0.1873,-0.187,-0.1869,-0.1883,-0.1884,-0.1885,-0.1925,-0.1884,-0.1885,-0.1886,-0.1973,-0.1975,-0.1977,0,0,0,0,0,0,-0.1788,-0.1794,-0.1847,-0.1826,-0.1833,-0.1849,-0.186,-0.1863,-0.1868,-0.1878,-0.1878,-0.1871,-0.1882,-0.1884,-0.1904,-0.1925,-0.1886,-0.1887,-0.1971,-0.1974,-0.1976,-0.2,0,0,0,0,0,0,-0.1786,-0.1793,-0.18,-0.1826,-0.1834,-0.1865,-0.1862,-0.1864,-0.1873,-0.1872,-0.1879,-0.1879,-0.1882,-0.1902,-0.1905,-0.1925,-0.1888,-0.1969,-0.1972,-0.1975,-0.1997,-0.2003,-0.2008,0,0,0,0,0,-0.1784,-0.1799,-0.18,-0.1806,-0.1842,-0.1866,-0.1871,-0.1879,-0.1874,-0.1879,-0.1892,-0.1879,-0.1925,-0.1904,-0.1907,-0.1928,-0.1967,-0.1971,-0.1975,-0.1994,-0.2002,-0.2008,0,0,0,0,0,0,-0.1777,-0.1801,-0.1802,-0.1825,-0.184,-0.1865,-0.1875,-0.1878,-0.1894,-0.1893,-0.1896,-0.1898,-0.1926,-0.1928,-0.1906,-0.1967,-0.1946,-0.1951,-0.196,-0.1967,-0.1972,-0.199,-0.1888,0,0,0,0,0,-0.1778,-0.179,-0.1813,-0.1829,-0.1838,-0.1855,-0.1866,-0.1872,-0.1889,-0.1894,-0.19,-0.1918,-0.1948,-0.1955,-0.1975,-0.2004,-0.203,-0.2023,-0.2029,-0.2033,-0.2052,-0.2117,-0.213,-0.199,-0.199,-0.199,0,0,-0.1778,-0.1794,-0.18,-0.1827,-0.1841,-0.1863,-0.1859,-0.1877,-0.1896,-0.1893,-0.1918,-0.1934,-0.1961,-0.1997,-0.201,-0.1998,-0.2086,-0.2038,-0.2042,-0.2058,-0.2123,-0.2137,-0.2149,-0.1992,-0.1992,-0.1992,0,0,-0.1789,-0.18,-0.1815,-0.183,-0.1852,-0.1866,-0.1869,-0.1892,-0.1902,-0.1929,-0.1944,-0.1984,-0.1999,-0.2044,-0.2064,-0.2118,-0.2114,-0.2109,-0.2148,-0.2211,-0.2223,-0.2234,-0.2275,-0.2289,-0.211,-0.211,-0.211,0,-0.1789,-0.181,-0.1822,-0.1844,-0.186,-0.1867,-0.189,-0.1909,-0.1934,-0.1966,-0.1935,-0.203,-0.2035,-0.2126,-0.2133,-0.2132,-0.2151,-0.2114,-0.2218,-0.2229,-0.224,-0.228,-0.2295,-0.2112,-0.2111,-0.2111,-0.2111,0,-0.1811,-0.1828,-0.184,-0.1868,-0.189,-0.1906,-0.1935,-0.196,-0.1967,-0.1997,-0.2071,-0.2097,-0.2159,-0.2164,-0.2154,-0.2245,-0.2226,-0.2215,-0.2196,-0.2255,-0.2293,-0.2309,-0.2114,-0.2113,-0.2113,-0.2113,0,0,-0.18,-0.1846,-0.1846,-0.1865,-0.1902,-0.1922,-0.1969,-0.2026,-0.2079,-0.2102,-0.2178,-0.2228,-0.2249,-0.2276,-0.2287,-0.2331,-0.2403,-0.2292,-0.2294,-0.2325,-0.2522,-0.2418,-0.2425,-0.2396,-0.24,-0.2402,-0.2514,0,-0.1807,-0.1846,-0.1874,-0.1911,-0.1931,-0.197,-0.202,-0.2078,-0.2122,-0.2193,-0.2253,-0.2318,-0.229,-0.2319,-0.2365,-0.2394,-0.2447,-0.2373,-0.2468,-0.2471,-0.2365,-0.2441,-0.2159,-0.2226,-0.2529,-0.2532,-0.2534,0,-0.1811,-0.1837,-0.1877,-0.194,-0.1956,-0.1988,-0.2083,-0.2131,-0.2244,-0.2282,-0.2372,-0.2407,-0.2496,-0.2447,-0.256,-0.2504,-0.252,-0.2537,-0.2542,-0.2451,-0.2396,-0.222,-0.2244,-0.2151,-0.2558,-0.2556,-0.2554,0,-0.1783,-0.1836,-0.1868,-0.1886,-0.1964,-0.2005,-0.2051,-0.2162,-0.223,-0.2345,-0.24,-0.2512,-0.2558,-0.2616,-0.2631,-0.2599,-0.2734,-0.2704,-0.2644,-0.2636,-0.2422,-0.2389,-0.236,-0.2804,-0.2804,-0.2803,-0.2803,0,-0.1774,-0.1792,-0.1857,-0.1873,-0.1939,-0.1993,-0.2091,-0.2158,-0.2277,-0.2365,-0.2439,-0.2513,-0.2594,-0.2668,-0.2682,-0.2705,-0.2786,-0.2675,-0.267,-0.2419,-0.2387,-0.2316,-0.2347,-0.2808,-0.2807,-0.2806,-0.2805,0,-0.1733,-0.1772,-0.1814,-0.1894,-0.1929,-0.1973,-0.2102,-0.2177,-0.2273,-0.2388,-0.2422,-0.2536,-0.2601,-0.268,-0.2772,-0.2756,-0.2717,-0.279,-0.2477,-0.2432,-0.2257,-0.2301,-0.2376,-0.2324,-0.2748,-0.2746,-0.2745,0,-0.1711,-0.1729,-0.1823,-0.1863,-0.19,-0.1982,-0.2054,-0.2168,-0.2248,-0.2389,-0.2437,-0.2532,-0.257,-0.2667,-0.2619,-0.2647,-0.2658,-0.2455,-0.2352,-0.2229,-0.2277,-0.2325,-0.228,-0.208,-0.2073,-0.2067,-0.2063,0,-0.1672,-0.171,-0.1756,-0.1835,-0.1903,-0.1993,-0.2089,-0.2147,-0.2274,-0.2331,-0.239,-0.242,-0.2454,-0.2319,-0.235,-0.2341,-0.2308,-0.2342,-0.2294,-0.1831,-0.1805,-0.1752,-0.2031,-0.2013,-0.2018,-0.2022,-0.2024,-0.2026,-0.164,-0.1663,-0.1727,-0.1797,-0.1885,-0.196,-0.197,-0.2058,-0.2118,-0.2108,-0.2221,-0.2137,-0.202,-0.1969,-0.1961,-0.176,-0.1986,-0.1676,-0.1768,-0.1851,-0.1713,-0.1884,-0.1808,-0.1811,-0.1814,-0.1817,-0.182,0,-0.1574,-0.1615,-0.1682,-0.1755,-0.1811,-0.1878,-0.1959,-0.1908,-0.188,-0.1865,-0.1818,-0.1637,-0.1452,-0.1399,-0.1221,-0.1164,-0.1156,-0.1187,-0.1148,-0.1155,-0.1323,-0.1193,-0.0879,-0.0879,-0.0879,-0.0879,-0.0879,-0.0879,-0.1541,-0.1565,-0.16,-0.1649,-0.1698,-0.1673,-0.167,-0.1584,-0.1525,-0.1344,-0.1223,-0.1184,-0.1152,-0.1038,-0.0845,-0.0794,-0.0826,-0.0791,-0.099,-0.1015,-0.1066,-0.1114,-0.0992,-0.0642,-0.0642,-0.0631,-0.0631,-0.0631]},{"header":{"parameterUnit":"m.s-1","parameterCategory":2,"la1":30.2991,"la2":30.254,"lo1":-89.0895,"lo2":-89.0444,"dy":0.0017,"dx":0.0017,"nx":28,"ny":28,"refTime":"2023-09-14T09:00:00:Z","depth":"0","parameterNumber":3,"parameterNumberName":"V-component_of_CURRENTS"},"data":[0,0,0,0,0,0,0,0,0,0,0,0,0,0,0,0,0,0,0,0,0,0,0,0,0,0,0,0,0,0,0,0,0,0,0,0,0,0,0,0,0,0,0,0,0,0,0,0,0,0,0,0,0,0,0,0,0,0,-0.01,-0.0099,0,-0.0031,-0.003,-0.0029,0.0024,0.0024,0.0024,0.0025,0.0077,0.0078,0.008,0,0,0,0,0,0,0,0,0,0,0,0,0,-0.011,-0.0111,-0.01,-0.0099,-0.0099,-0.0031,-0.003,-0.0029,0.0023,0.0024,0.0024,0.0025,0.0077,0.0078,0.008,0,0,0,0,0,0,0,0,0,0,0,0,0,-0.0079,-0.0111,-0.01,-0.0065,-0.0061,-0.0031,-0.003,-0.0029,0.0023,0.0024,0.0024,0.0025,0.0077,0.0078,0.008,0.0078,0,0,0.0085,0.0085,0,0,0,0,0,0,0,0,-0.0081,-0.0079,-0.0071,-0.0068,-0.0063,-0.0013,-0.0014,0.0006,0.0023,-0.0008,0.0025,0.0025,0.0045,0.0049,0.0063,0.0081,0.0083,0.0085,0.0086,0.0086,0.0087,0,0,0,0,0,0,0,-0.0083,-0.0081,-0.0071,-0.007,-0.0066,-0.0027,-0.0022,-0.0009,0.0015,-0.0005,-0.0001,0.0004,0.0047,0.0061,0.0064,0.0084,0.0085,0.0086,0.0087,0.0088,0.0105,0.0105,0,0,0,0,0,0,-0.0099,-0.0084,-0.0074,-0.0069,-0.0072,-0.0027,-0.0022,-0.0029,0.0015,0.0023,0.0004,0.0007,0.0058,0.0062,0.0066,0.0053,0.0086,0.0088,0.0089,0.0106,0.0105,0.0105,0,0,0,0,0,0,-0.01,-0.0099,-0.0076,-0.0075,-0.0069,-0.0029,-0.0035,-0.0028,-0.0012,0.0022,0.0029,0.0011,0.0059,0.0064,0.0073,0.0056,0.0089,0.009,0.0106,0.0105,0.0105,0.0036,0,0,0,0,0,0,-0.0101,-0.01,-0.0108,-0.0077,-0.007,-0.0068,-0.0036,-0.0027,-0.001,-0.0005,0.0031,0.0036,0.0059,0.0071,0.0075,0.0059,0.0091,0.0107,0.0106,0.0105,0.0039,0.0033,0.0028,0,0,0,0,0,-0.0101,-0.0118,-0.0109,-0.0107,-0.0083,-0.0069,-0.0062,-0.0029,-0.001,-0.0011,0.0015,0.0035,0.0068,0.0071,0.0076,0.006,0.0107,0.0106,0.0105,0.0041,0.0034,0.0028,0,0,0,0,0,0,-0.0123,-0.0113,-0.0102,-0.0114,-0.0097,-0.0061,-0.0056,-0.0034,-0.0012,-0.0005,0.0028,0.0035,0.0037,0.0059,0.0062,0.0064,0.0091,0.0091,0.0041,0.0034,0.0029,0.0015,0.0093,0,0,0,0,0,-0.0134,-0.0145,-0.0124,-0.0133,-0.0127,-0.0092,-0.008,-0.0059,-0.0036,-0.0024,0.0001,0.0025,0.0036,0.0043,0.006,0.0059,0.007,0.0053,0.0048,0.0043,0.0035,0.0049,0.0044,0.0101,0.0101,0.0101,0,0,-0.0144,-0.014,-0.0145,-0.0138,-0.0119,-0.0121,-0.0083,-0.0071,-0.0075,-0.0024,-0.002,0.0006,0.0032,0.0031,0.0034,0.0048,0.0027,0.0042,0.0037,0.0032,0.0047,0.0042,0.0037,0.01,0.01,0.01,0,0,-0.0169,-0.0168,-0.0182,-0.0174,-0.0155,-0.014,-0.0141,-0.0109,-0.0098,-0.009,-0.0059,-0.0042,-0.0019,-0.0006,0.0003,-0.0022,-0.0002,-0.0017,-0.0058,-0.0045,-0.0049,-0.0053,-0.0074,-0.0079,-0.002,-0.002,-0.002,0,-0.0179,-0.0199,-0.0183,-0.019,-0.0192,-0.0155,-0.0169,-0.0156,-0.0125,-0.0128,-0.0098,-0.0065,-0.0038,-0.0048,-0.0053,-0.0036,-0.0035,-0.0037,-0.0053,-0.0057,-0.0059,-0.0079,-0.0084,-0.0023,-0.0023,-0.0023,-0.0022,0,-0.0211,-0.0225,-0.0232,-0.0239,-0.024,-0.0245,-0.0231,-0.0229,-0.0208,-0.0192,-0.0188,-0.0142,-0.0123,-0.0112,-0.009,-0.0103,-0.01,-0.0063,-0.004,-0.007,-0.0088,-0.0092,-0.0028,-0.0027,-0.0026,-0.0025,0,0,-0.024,-0.0255,-0.0257,-0.0277,-0.0268,-0.0279,-0.0292,-0.0302,-0.0319,-0.0278,-0.0297,-0.0257,-0.0222,-0.0209,-0.0174,-0.0159,-0.018,-0.0125,-0.0122,-0.0153,-0.0181,-0.012,-0.0118,-0.0145,-0.0146,-0.0146,-0.0196,0,-0.0269,-0.0306,-0.0305,-0.0348,-0.0368,-0.0356,-0.0378,-0.0382,-0.0369,-0.0378,-0.0334,-0.0326,-0.0264,-0.0252,-0.023,-0.019,-0.0189,-0.0172,-0.0141,-0.0141,-0.0088,-0.0119,-0.0069,-0.0103,-0.02,-0.02,-0.0201,0,-0.0301,-0.0325,-0.0369,-0.0418,-0.0427,-0.0448,-0.0488,-0.0499,-0.05,-0.0489,-0.0465,-0.0423,-0.0402,-0.0334,-0.029,-0.0283,-0.0243,-0.0208,-0.0208,-0.0126,-0.0085,-0.0082,-0.0106,0.0043,-0.0206,-0.0206,-0.0205,0,-0.0339,-0.0379,-0.0423,-0.0434,-0.0471,-0.0501,-0.0522,-0.0532,-0.0554,-0.0551,-0.0557,-0.0518,-0.0497,-0.0436,-0.0353,-0.0324,-0.0312,-0.0259,-0.0177,-0.0174,-0.0112,-0.0102,0.001,-0.0237,-0.0236,-0.0236,-0.0236,0,-0.0378,-0.0416,-0.0446,-0.0472,-0.0547,-0.0545,-0.0609,-0.0624,-0.0633,-0.0667,-0.0609,-0.0621,-0.0516,-0.0486,-0.0405,-0.0312,-0.0352,-0.0198,-0.0177,-0.0137,-0.0128,0.0023,0.0077,-0.0238,-0.0238,-0.0237,-0.0237,0,-0.0413,-0.0426,-0.0489,-0.0541,-0.0567,-0.0617,-0.0676,-0.0714,-0.0705,-0.0745,-0.0743,-0.0711,-0.0664,-0.0574,-0.0491,-0.0376,-0.0209,-0.0258,-0.0233,-0.0206,0.0059,0.0106,0.0195,0.0269,-0.0163,-0.0161,-0.016,0,-0.0435,-0.0465,-0.0546,-0.0602,-0.0632,-0.0697,-0.0747,-0.0758,-0.0785,-0.08,-0.0826,-0.0793,-0.0762,-0.0628,-0.0444,-0.0306,-0.0203,-0.0159,-0.0066,0.0074,0.0141,0.0167,0.0225,-0.0037,-0.0035,-0.0033,-0.0032,0,-0.0484,-0.0509,-0.0567,-0.0679,-0.075,-0.0819,-0.0877,-0.0905,-0.0906,-0.091,-0.0923,-0.0895,-0.0754,-0.0555,-0.0351,-0.0254,-0.0028,-0.0116,0.0028,0.0249,0.0283,0.0364,-0.0032,-0.0017,-0.0019,-0.002,-0.002,-0.0021,-0.0528,-0.0583,-0.0666,-0.0776,-0.0855,-0.0926,-0.0962,-0.0988,-0.1011,-0.0982,-0.0976,-0.0879,-0.0591,-0.0281,-0.0166,0.0152,0.01,0.0277,0.0313,0.0319,0.0436,0.0066,0.0122,0.0121,0.012,0.012,0.0119,0,-0.0589,-0.0657,-0.0765,-0.0885,-0.097,-0.0989,-0.1042,-0.1035,-0.1031,-0.0972,-0.0927,-0.0606,-0.0301,-0.0022,0.0397,0.0583,0.0624,0.0652,0.0709,0.0742,0.0417,0.0475,0.0613,0.0613,0.0613,0.0613,0.0613,0.0613,-0.0631,-0.0741,-0.0801,-0.0963,-0.103,-0.1089,-0.1097,-0.1062,-0.0996,-0.0821,-0.0629,-0.0502,-0.007,0.0536,0.0918,0.0949,0.1095,0.1069,0.1134,0.0936,0.0904,0.0874,0.0945,0.118,0.118,0.1464,0.1467,0.1469]}],[{"header":{"parameterUnit":"m.s-1","parameterCategory":2,"la1":30.2991,"la2":30.254,"lo1":-89.0895,"lo2":-89.0444,"dy":0.0017,"dx":0.0017,"nx":28,"ny":28,"refTime":"2023-09-14T09:00:00:Z","depth":"2","parameterNumber":2,"parameterNumberName":"U-component_of_CURRENTS"},"data":[0,0,0,0,0,0,0,0,0,0,0,0,0,0,0,0,0,0,0,0,0,0,0,0,0,0,0,0,0,0,0,0,0,0,0,0,0,0,0,0,0,0,0,0,0,0,0,0,0,0,0,0,0,0,0,0,0,0,-0.1442,-0.1442,0,-0.1403,-0.1402,-0.1401,-0.1377,-0.1377,-0.1377,-0.1378,-0.128,-0.1278,-0.1275,0,0,0,0,0,0,0,0,0,0,0,0,0,-0.1417,-0.1417,-0.1442,-0.1442,-0.1442,-0.1403,-0.1402,-0.1401,-0.1377,-0.1377,-0.1377,-0.1378,-0.1281,-0.1278,-0.1275,0,0,0,0,0,0,0,0,0,0,0,0,0,-0.1403,-0.1417,-0.1442,-0.1429,-0.1428,-0.1403,-0.1402,-0.1401,-0.1376,-0.1377,-0.1378,-0.1378,-0.1283,-0.1278,-0.1274,-0.1237,0,0,-0.1261,-0.1259,0,0,0,0,0,0,0,0,-0.1404,-0.1403,-0.1431,-0.143,-0.1429,-0.14,-0.1358,-0.1345,-0.1376,-0.139,-0.1378,-0.1378,-0.1318,-0.1311,-0.1296,-0.1232,-0.1228,-0.126,-0.1258,-0.1256,-0.1255,0,0,0,0,0,0,0,-0.1405,-0.1404,-0.1421,-0.1431,-0.143,-0.1399,-0.1397,-0.1355,-0.1347,-0.1389,-0.1389,-0.1393,-0.1316,-0.13,-0.1293,-0.1226,-0.126,-0.1257,-0.1254,-0.1252,-0.1212,-0.1214,0,0,0,0,0,0,-0.1424,-0.1406,-0.1423,-0.1421,-0.1423,-0.1399,-0.1398,-0.1404,-0.1348,-0.1342,-0.1392,-0.1392,-0.1307,-0.1298,-0.1289,-0.1327,-0.1256,-0.1252,-0.1249,-0.1211,-0.1212,-0.1214,0,0,0,0,0,0,-0.1424,-0.1426,-0.1424,-0.1416,-0.1414,-0.14,-0.1407,-0.1403,-0.1399,-0.1352,-0.1344,-0.1395,-0.1307,-0.1296,-0.127,-0.132,-0.125,-0.1246,-0.1209,-0.1211,-0.1213,-0.1347,0,0,0,0,0,0,-0.1423,-0.1426,-0.143,-0.1418,-0.1416,-0.1419,-0.1407,-0.1402,-0.1403,-0.1402,-0.1351,-0.1342,-0.1307,-0.1277,-0.1266,-0.1313,-0.1242,-0.1207,-0.121,-0.1213,-0.1341,-0.1354,-0.1365,0,0,0,0,0,-0.1422,-0.143,-0.1431,-0.1433,-0.1425,-0.1419,-0.1415,-0.1402,-0.1403,-0.14,-0.1375,-0.1344,-0.1289,-0.1274,-0.126,-0.1308,-0.1205,-0.1209,-0.1212,-0.1335,-0.1351,-0.1365,0,0,0,0,0,0,-0.1418,-0.1429,-0.1429,-0.1439,-0.1435,-0.1418,-0.1414,-0.141,-0.1387,-0.1388,-0.1345,-0.1334,-0.1335,-0.1295,-0.128,-0.1305,-0.1249,-0.125,-0.1347,-0.1361,-0.1373,-0.1379,-0.1239,0,0,0,0,0,-0.1422,-0.1429,-0.1434,-0.1438,-0.1442,-0.143,-0.1426,-0.1423,-0.1406,-0.1397,-0.1367,-0.1343,-0.1336,-0.1328,-0.1297,-0.1297,-0.1303,-0.1324,-0.1336,-0.1347,-0.1343,-0.1418,-0.1438,-0.1226,-0.1226,-0.1225,0,0,-0.142,-0.1427,-0.143,-0.1438,-0.1431,-0.1438,-0.1427,-0.1429,-0.1441,-0.1388,-0.1385,-0.1371,-0.1342,-0.1353,-0.1352,-0.133,-0.1413,-0.1351,-0.1361,-0.1351,-0.1424,-0.1445,-0.1464,-0.1228,-0.1228,-0.1227,0,0,-0.142,-0.1429,-0.1437,-0.144,-0.1446,-0.1445,-0.1453,-0.1447,-0.1453,-0.1445,-0.1435,-0.1459,-0.1405,-0.1431,-0.143,-0.1487,-0.1469,-0.1475,-0.1548,-0.1623,-0.1641,-0.1658,-0.1709,-0.1729,-0.149,-0.149,-0.1491,0,-0.1421,-0.143,-0.1436,-0.1446,-0.1455,-0.1455,-0.147,-0.1473,-0.146,-0.1492,-0.1455,-0.1483,-0.1453,-0.153,-0.1544,-0.152,-0.154,-0.15,-0.1642,-0.1658,-0.1673,-0.1721,-0.1742,-0.1497,-0.1497,-0.1496,-0.1495,0,-0.1426,-0.1436,-0.1441,-0.1459,-0.147,-0.1478,-0.1499,-0.152,-0.1527,-0.1547,-0.161,-0.1592,-0.1621,-0.163,-0.1589,-0.1697,-0.1672,-0.1648,-0.1613,-0.1703,-0.1747,-0.1766,-0.1507,-0.1505,-0.1503,-0.1501,0,0,-0.142,-0.1443,-0.1442,-0.1466,-0.1482,-0.15,-0.1538,-0.1593,-0.1662,-0.1661,-0.1751,-0.1757,-0.1777,-0.1777,-0.1774,-0.1829,-0.1948,-0.1775,-0.1776,-0.1838,-0.2101,-0.1854,-0.1851,-0.1952,-0.1955,-0.1958,-0.2098,0,-0.1421,-0.1438,-0.1458,-0.1493,-0.1507,-0.1548,-0.1598,-0.1657,-0.17,-0.1784,-0.1831,-0.1889,-0.1829,-0.1864,-0.1916,-0.1926,-0.1999,-0.191,-0.1991,-0.1993,-0.1774,-0.1864,-0.1692,-0.178,-0.2116,-0.2119,-0.2121,0,-0.1416,-0.1429,-0.1449,-0.1536,-0.1555,-0.159,-0.1706,-0.1751,-0.1874,-0.1918,-0.2004,-0.2027,-0.2113,-0.2044,-0.2147,-0.2089,-0.2102,-0.2112,-0.2118,-0.1846,-0.1779,-0.1739,-0.1801,-0.2152,-0.215,-0.2147,-0.2145,0,-0.139,-0.1439,-0.1457,-0.1472,-0.1555,-0.1613,-0.1678,-0.1796,-0.1873,-0.2009,-0.2074,-0.2183,-0.2223,-0.2275,-0.2247,-0.2218,-0.2343,-0.2321,-0.2134,-0.2118,-0.1959,-0.1919,-0.2425,-0.2425,-0.2425,-0.2424,-0.2424,0,-0.1377,-0.1403,-0.1453,-0.1463,-0.155,-0.1615,-0.1745,-0.1826,-0.1967,-0.2058,-0.2138,-0.2196,-0.2275,-0.2329,-0.2323,-0.2253,-0.2414,-0.2152,-0.2138,-0.1995,-0.1959,-0.2256,-0.2234,-0.243,-0.2428,-0.2427,-0.2427,0,-0.1343,-0.1361,-0.1401,-0.1488,-0.1529,-0.1592,-0.1767,-0.1874,-0.1983,-0.2099,-0.2138,-0.224,-0.2253,-0.2316,-0.2391,-0.2308,-0.2306,-0.2255,-0.2051,-0.2004,-0.2025,-0.201,-0.2082,-0.2075,-0.2069,-0.2063,-0.2059,0,-0.1327,-0.1325,-0.1401,-0.145,-0.1495,-0.1609,-0.1707,-0.1856,-0.195,-0.2081,-0.2123,-0.218,-0.2141,-0.2149,-0.2068,-0.2041,-0.2164,-0.1853,-0.1738,-0.2011,-0.1993,-0.1987,-0.1979,-0.1629,-0.1621,-0.1615,-0.161,0,-0.1296,-0.131,-0.135,-0.1422,-0.1514,-0.1614,-0.1743,-0.1796,-0.1938,-0.198,-0.1968,-0.1935,-0.1913,-0.1739,-0.1691,-0.1653,-0.1828,-0.1711,-0.2133,-0.1674,-0.1575,-0.1558,-0.157,-0.1555,-0.156,-0.1564,-0.1567,-0.157,-0.128,-0.1292,-0.1324,-0.1405,-0.1501,-0.1542,-0.1549,-0.1663,-0.1682,-0.1687,-0.174,-0.1634,-0.163,-0.1389,-0.1308,-0.1252,-0.1376,-0.1334,-0.136,-0.1391,-0.1244,-0.1132,-0.1003,-0.1006,-0.1008,-0.1009,-0.1011,0,-0.1236,-0.1253,-0.1318,-0.1371,-0.1413,-0.1484,-0.1521,-0.1489,-0.1403,-0.1456,-0.1393,-0.1202,-0.1046,-0.1074,-0.0864,-0.0777,-0.0849,-0.0755,-0.0879,-0.0931,-0.0978,-0.0818,-0.0462,-0.046,-0.0459,-0.0458,0,0,-0.1211,-0.1214,-0.123,-0.1234,-0.1282,-0.1218,-0.1165,-0.1135,-0.1119,-0.102,-0.0971,-0.1046,-0.1032,-0.078,-0.0685,-0.0543,-0.0751,-0.0503,-0.094,-0.114,-0.1187,-0.1293,-0.1097,0,0,0,0,0]},{"header":{"parameterUnit":"m.s-1","parameterCategory":2,"la1":30.2991,"la2":30.254,"lo1":-89.0895,"lo2":-89.0444,"dy":0.0017,"dx":0.0017,"nx":28,"ny":28,"refTime":"2023-09-14T09:00:00:Z","depth":"2","parameterNumber":3,"parameterNumberName":"V-component_of_CURRENTS"},"data":[0,0,0,0,0,0,0,0,0,0,0,0,0,0,0,0,0,0,0,0,0,0,0,0,0,0,0,0,0,0,0,0,0,0,0,0,0,0,0,0,0,0,0,0,0,0,0,0,0,0,0,0,0,0,0,0,0,0,-0.0106,-0.0104,0,0.0043,0.0045,0.0047,0.0115,0.0115,0.0115,0.0114,0.0249,0.0253,0.0257,0,0,0,0,0,0,0,0,0,0,0,0,0,-0.0172,-0.0172,-0.0106,-0.0104,-0.0103,0.0042,0.0045,0.0047,0.0115,0.0115,0.0115,0.0114,0.0248,0.0253,0.0257,0,0,0,0,0,0,0,0,0,0,0,0,0,-0.0093,-0.0172,-0.0106,-0.0053,-0.0047,0.0042,0.0045,0.0048,0.0116,0.0115,0.0114,0.0114,0.0246,0.0252,0.0258,0.0305,0,0,0.0276,0.0279,0,0,0,0,0,0,0,0,-0.0098,-0.0091,-0.0062,-0.0057,-0.005,0.0058,0.0071,0.0132,0.0116,0.0057,0.0114,0.0114,0.0183,0.0194,0.0227,0.0312,0.0317,0.0277,0.028,0.0283,0.0284,0,0,0,0,0,0,0,-0.0104,-0.0096,-0.0044,-0.0061,-0.0053,0.0018,0.0027,0.0084,0.0123,0.0062,0.0066,0.0079,0.0186,0.0221,0.023,0.0319,0.0276,0.0282,0.0285,0.0288,0.0451,0.0452,0,0,0,0,0,0,-0.0135,-0.0102,-0.0049,-0.004,-0.0079,0.0018,0.0029,0.0026,0.0123,0.0136,0.0079,0.0082,0.0211,0.0223,0.0235,0.0289,0.0283,0.0288,0.0291,0.045,0.0451,0.0452,0,0,0,0,0,0,-0.0138,-0.0133,-0.0055,-0.0068,-0.0054,0.0018,0.0016,0.0029,0.0064,0.0135,0.0149,0.0099,0.0211,0.0227,0.0294,0.0295,0.0291,0.0296,0.0449,0.0451,0.0452,0.0401,0,0,0,0,0,0,-0.014,-0.0135,-0.0138,-0.0072,-0.0055,-0.0001,0.0016,0.0032,0.0071,0.0076,0.0157,0.0169,0.0212,0.0285,0.03,0.0303,0.0301,0.0448,0.045,0.0451,0.0402,0.0401,0.04,0,0,0,0,0,-0.0143,-0.0148,-0.014,-0.0132,-0.0066,-0.0001,0.0016,0.0068,0.0072,0.0096,0.015,0.0167,0.0305,0.0291,0.0309,0.0313,0.0448,0.045,0.0451,0.0403,0.0401,0.04,0,0,0,0,0,0,-0.017,-0.014,-0.0129,-0.0123,-0.0067,0.001,0.0035,0.0066,0.0129,0.0128,0.0189,0.0206,0.0261,0.03,0.0284,0.0365,0.0375,0.038,0.0332,0.0331,0.033,0.0297,0.0306,0,0,0,0,0,-0.0183,-0.0185,-0.0131,-0.0123,-0.0102,-0.0036,-0.0002,0.0032,0.0092,0.0119,0.0174,0.0231,0.0284,0.0317,0.0372,0.0425,0.0449,0.0436,0.0435,0.0434,0.042,0.0476,0.0478,0.0458,0.0458,0.0458,0,0,-0.0189,-0.0174,-0.0173,-0.0129,-0.0086,-0.0043,-0.0016,0.003,0.0064,0.0123,0.0184,0.0231,0.0298,0.0354,0.0381,0.0386,0.0451,0.0436,0.0434,0.0421,0.0479,0.048,0.0482,0.0459,0.0459,0.0459,0,0,-0.0196,-0.0193,-0.019,-0.0147,-0.0092,-0.005,-0.0042,0.0032,0.0061,0.0127,0.0169,0.0221,0.0309,0.0357,0.0391,0.042,0.0442,0.0429,0.0399,0.0455,0.0456,0.0458,0.0479,0.0483,0.0429,0.0429,0.0429,0,-0.0201,-0.0195,-0.0171,-0.0144,-0.0111,-0.006,-0.0028,0.0016,0.0104,0.012,0.0137,0.0255,0.0312,0.0373,0.0377,0.0416,0.0434,0.0396,0.0451,0.0453,0.0456,0.0477,0.0482,0.0427,0.0427,0.0428,0.0428,0,-0.0199,-0.0181,-0.0171,-0.0132,-0.0092,-0.0056,-0.0,0.0031,0.0062,0.0105,0.0163,0.0245,0.0304,0.0334,0.0364,0.0405,0.0406,0.044,0.0447,0.0454,0.0477,0.0483,0.0424,0.0425,0.0425,0.0426,0,0,-0.0234,-0.0183,-0.0176,-0.016,-0.0086,-0.0059,-0.0015,0.0035,0.0041,0.0118,0.0143,0.0234,0.025,0.0289,0.0336,0.0385,0.0419,0.0404,0.0408,0.0409,0.0508,0.0469,0.0472,0.0455,0.0456,0.0457,0.0511,0,-0.0232,-0.02,-0.0168,-0.0126,-0.01,-0.0052,-0.0023,0.0021,0.0061,0.0096,0.0163,0.0206,0.0242,0.0257,0.0312,0.0395,0.0434,0.0399,0.0514,0.0516,0.0469,0.0478,0.0453,0.0495,0.0517,0.0518,0.0519,0,-0.0236,-0.0214,-0.0181,-0.0143,-0.0131,-0.0105,-0.0075,-0.0042,0.0012,0.0035,0.0083,0.0133,0.0202,0.0237,0.0365,0.0335,0.0403,0.047,0.0475,0.0457,0.0489,0.0496,0.0505,0.0529,0.0528,0.0528,0.0527,0,-0.0282,-0.0226,-0.0213,-0.019,-0.0135,-0.0132,-0.0112,-0.0068,-0.006,-0.0013,-0.0003,0.0087,0.0125,0.0234,0.035,0.0356,0.049,0.053,0.0559,0.0556,0.0566,0.0562,0.0616,0.0616,0.0616,0.0616,0.0616,0,-0.0296,-0.028,-0.0241,-0.0231,-0.0238,-0.0184,-0.0196,-0.0172,-0.0135,-0.0132,-0.0053,-0.0029,0.0124,0.0217,0.0332,0.0446,0.0477,0.0542,0.057,0.0546,0.054,0.06,0.0597,0.0618,0.0618,0.0617,0.0617,0,-0.0336,-0.0305,-0.0293,-0.0259,-0.0259,-0.0269,-0.0261,-0.0271,-0.0233,-0.022,-0.0212,-0.0116,-0.0011,0.0139,0.0317,0.0407,0.0539,0.0573,0.0508,0.0527,0.0571,0.0565,0.0613,0.0612,0.0611,0.0611,0.061,0,-0.0349,-0.0349,-0.0338,-0.0357,-0.0346,-0.0356,-0.0373,-0.0334,-0.0331,-0.0273,-0.0266,-0.0178,-0.0131,0.0093,0.0277,0.0451,0.0504,0.0537,0.0554,0.0548,0.0572,0.0568,0.0563,0.0551,0.055,0.055,0.0549,0,-0.0378,-0.0383,-0.0386,-0.0431,-0.0454,-0.0468,-0.0474,-0.0482,-0.0432,-0.0427,-0.0394,-0.0359,-0.0165,0.0004,0.0224,0.0346,0.0507,0.0524,0.0565,0.054,0.0491,0.0513,0.0512,0.0542,0.0543,0.0543,0.0544,0.0544,-0.0413,-0.0436,-0.0463,-0.051,-0.054,-0.0566,-0.0584,-0.0581,-0.0591,-0.0547,-0.0491,-0.0409,-0.0232,0.0057,0.022,0.0414,0.0431,0.0518,0.0521,0.0525,0.0492,0.0443,0.0478,0.0478,0.0478,0.0478,0.0479,0,-0.0447,-0.049,-0.0544,-0.059,-0.0638,-0.0635,-0.0644,-0.0647,-0.0668,-0.0593,-0.0562,-0.0382,-0.02,0.0016,0.0283,0.0417,0.044,0.0467,0.0481,0.0487,0.0492,0.0459,0.0435,0.0436,0.0436,0.0436,0,0,-0.0471,-0.0532,-0.0568,-0.0665,-0.0705,-0.0738,-0.0744,-0.0749,-0.0686,-0.0641,-0.0543,-0.0415,-0.018,0.0003,0.0177,0.032,0.0375,0.034,0.0362,0.0365,0.0368,0.0509,0.0462,0,0,0,0,0]}],[{"header":{"parameterUnit":"m.s-1","parameterCategory":2,"la1":30.2991,"la2":30.254,"lo1":-89.0895,"lo2":-89.0444,"dy":0.0017,"dx":0.0017,"nx":28,"ny":28,"refTime":"2023-09-14T09:00:00:Z","depth":"4","parameterNumber":2,"parameterNumberName":"U-component_of_CURRENTS"},"data":[0,0,0,0,0,0,0,0,0,0,0,0,0,0,0,0,0,0,0,0,0,0,0,0,0,0,0,0,0,0,0,0,0,0,0,0,0,0,0,0,0,0,0,0,0,0,0,0,0,0,0,0,0,0,0,0,0,0,-0.07,-0.0701,0,-0.073,-0.073,-0.073,-0.0748,-0.0748,-0.0749,-0.0749,-0.0807,-0.0808,-0.0809,0,0,0,0,0,0,0,0,0,0,0,0,0,-0.0656,-0.0657,-0.07,-0.0701,-0.0701,-0.073,-0.073,-0.073,-0.0748,-0.0748,-0.0749,-0.0749,-0.0806,-0.0808,-0.0809,0,0,0,0,0,0,0,0,0,0,0,0,0,-0.0678,-0.0657,-0.07,-0.0715,-0.0717,-0.073,-0.073,-0.073,-0.0748,-0.0748,-0.0749,-0.0749,-0.0806,-0.0808,-0.081,-0.0814,0,0,-0.0816,-0.0816,0,0,0,0,0,0,0,0,-0.0676,-0.0679,-0.0712,-0.0714,-0.0716,-0.0737,-0.0736,-0.076,-0.0748,-0.0734,-0.0749,-0.0749,-0.0787,-0.0791,-0.0792,-0.0816,-0.0819,-0.0816,-0.0817,-0.0818,-0.0818,0,0,0,0,0,0,0,-0.0675,-0.0678,-0.071,-0.0713,-0.0715,-0.0719,-0.0722,-0.074,-0.0757,-0.0736,-0.0737,-0.0743,-0.0788,-0.079,-0.0794,-0.082,-0.0816,-0.0817,-0.0819,-0.0819,-0.0915,-0.0916,0,0,0,0,0,0,-0.0675,-0.0676,-0.0709,-0.0711,-0.0699,-0.072,-0.0723,-0.0729,-0.0757,-0.0761,-0.0743,-0.0744,-0.0787,-0.0792,-0.0796,-0.0853,-0.0818,-0.082,-0.0821,-0.0913,-0.0915,-0.0916,0,0,0,0,0,0,-0.0674,-0.0677,-0.0708,-0.0696,-0.07,-0.072,-0.0726,-0.0729,-0.0746,-0.0762,-0.0767,-0.0759,-0.0787,-0.0793,-0.0825,-0.0854,-0.082,-0.0822,-0.0912,-0.0914,-0.0916,-0.0935,0,0,0,0,0,0,-0.0672,-0.0677,-0.0688,-0.0696,-0.0701,-0.0726,-0.0726,-0.0729,-0.0749,-0.0751,-0.0777,-0.0782,-0.0788,-0.0822,-0.0827,-0.0856,-0.0824,-0.091,-0.0913,-0.0915,-0.0933,-0.0937,-0.0941,0,0,0,0,0,-0.067,-0.0684,-0.0689,-0.0693,-0.0714,-0.0727,-0.073,-0.0744,-0.075,-0.076,-0.0779,-0.0782,-0.0843,-0.0824,-0.083,-0.086,-0.0909,-0.0912,-0.0915,-0.0931,-0.0936,-0.0941,0,0,0,0,0,0,-0.0675,-0.0687,-0.0693,-0.0711,-0.0723,-0.0731,-0.0746,-0.0752,-0.0773,-0.078,-0.0793,-0.0799,-0.0845,-0.0848,-0.0828,-0.0897,-0.0879,-0.0884,-0.089,-0.0895,-0.09,-0.0889,-0.0825,0,0,0,0,0,-0.068,-0.0691,-0.0703,-0.0719,-0.0727,-0.0738,-0.0748,-0.0756,-0.0772,-0.0782,-0.0803,-0.0829,-0.0859,-0.0872,-0.09,-0.0927,-0.0924,-0.0953,-0.0958,-0.0961,-0.0958,-0.0983,-0.0989,-0.0927,-0.0927,-0.0927,0,0,-0.0681,-0.0695,-0.0699,-0.0721,-0.0731,-0.0745,-0.0745,-0.0764,-0.0783,-0.0786,-0.0826,-0.085,-0.0873,-0.0911,-0.0931,-0.0916,-0.0977,-0.0965,-0.0968,-0.0963,-0.0987,-0.0993,-0.0998,-0.0929,-0.0928,-0.0928,0,0,-0.069,-0.0707,-0.0718,-0.0725,-0.0747,-0.0761,-0.077,-0.0788,-0.0806,-0.084,-0.0856,-0.0886,-0.0933,-0.0947,-0.0961,-0.1004,-0.1007,-0.1029,-0.1034,-0.1059,-0.1063,-0.1068,-0.1063,-0.1066,-0.1022,-0.1022,-0.1022,0,-0.07,-0.0709,-0.0724,-0.0734,-0.0747,-0.077,-0.0784,-0.0804,-0.0833,-0.085,-0.086,-0.0934,-0.0946,-0.0989,-0.1002,-0.1013,-0.1022,-0.1009,-0.1063,-0.1067,-0.1071,-0.1065,-0.1069,-0.1024,-0.1024,-0.1023,-0.1023,0,-0.0704,-0.0717,-0.0725,-0.0748,-0.0768,-0.0782,-0.0811,-0.0839,-0.087,-0.0887,-0.0947,-0.0971,-0.101,-0.1027,-0.1025,-0.1069,-0.1064,-0.1071,-0.1044,-0.1078,-0.107,-0.1073,-0.1026,-0.1025,-0.1025,-0.1024,0,0,-0.071,-0.0727,-0.073,-0.0737,-0.0775,-0.0789,-0.0831,-0.087,-0.0893,-0.0941,-0.0981,-0.1027,-0.1044,-0.1061,-0.1076,-0.1089,-0.1113,-0.1091,-0.1092,-0.1075,-0.1156,-0.1088,-0.1084,-0.1138,-0.1139,-0.114,-0.1135,0,-0.0713,-0.0729,-0.0744,-0.0767,-0.0777,-0.081,-0.0832,-0.087,-0.0923,-0.0967,-0.1008,-0.1053,-0.1059,-0.1083,-0.1102,-0.1119,-0.1126,-0.1113,-0.1134,-0.1134,-0.1061,-0.1088,-0.1144,-0.1137,-0.1138,-0.1138,-0.1139,0,-0.0707,-0.0721,-0.0739,-0.076,-0.0767,-0.0791,-0.0848,-0.0879,-0.0941,-0.0973,-0.1039,-0.1075,-0.1116,-0.1117,-0.1157,-0.1155,-0.1155,-0.1159,-0.1159,-0.109,-0.1072,-0.11,-0.1145,-0.1144,-0.1144,-0.1144,-0.1143,0,-0.069,-0.0717,-0.0735,-0.074,-0.0768,-0.0793,-0.083,-0.0885,-0.0906,-0.1001,-0.1028,-0.1093,-0.1129,-0.1158,-0.1171,-0.1172,-0.1206,-0.1205,-0.114,-0.1134,-0.1187,-0.1182,-0.1226,-0.1226,-0.1226,-0.1226,-0.1226,0,-0.0676,-0.0688,-0.0728,-0.0729,-0.0737,-0.0785,-0.0809,-0.0855,-0.0918,-0.095,-0.1038,-0.1075,-0.1145,-0.1177,-0.1184,-0.117,-0.1217,-0.1138,-0.1133,-0.1194,-0.1191,-0.1188,-0.1184,-0.1225,-0.1225,-0.1225,-0.1226,0,-0.0643,-0.0667,-0.0679,-0.0716,-0.0722,-0.0742,-0.0779,-0.0792,-0.0874,-0.0935,-0.0965,-0.106,-0.1109,-0.1154,-0.1192,-0.1168,-0.1169,-0.1149,-0.1198,-0.1195,-0.1072,-0.107,-0.107,-0.1067,-0.1065,-0.1064,-0.1062,0,-0.0627,-0.0627,-0.0654,-0.0648,-0.0667,-0.0692,-0.0683,-0.0756,-0.0795,-0.0918,-0.0946,-0.1024,-0.108,-0.1086,-0.1129,-0.1134,-0.1126,-0.1107,-0.1098,-0.1064,-0.1059,-0.1059,-0.1059,-0.1059,-0.1059,-0.1058,-0.1057,0,-0.0589,-0.0602,-0.061,-0.0588,-0.059,-0.0586,-0.0626,-0.0639,-0.0745,-0.0812,-0.0916,-0.0963,-0.1014,-0.1053,-0.1061,-0.1065,-0.1112,-0.1086,-0.1089,-0.1081,-0.1052,-0.1048,-0.1051,-0.1051,-0.1052,-0.1052,-0.1053,0,-0.0562,-0.0552,-0.0549,-0.0526,-0.0516,-0.0511,-0.0533,-0.0592,-0.0633,-0.0805,-0.0828,-0.0936,-0.1016,-0.1016,-0.1026,-0.1024,-0.1008,-0.0977,-0.0986,-0.0994,-0.0972,-0.0923,-0.0876,0,0,0,0,0,-0.0534,-0.0506,-0.0478,-0.0457,-0.0445,-0.0446,-0.0495,-0.0535,-0.0642,-0.0698,-0.0775,-0.0835,-0.0888,-0.0929,-0.0909,-0.0955,-0.0984,-0.0925,-0.0946,-0.1012,-0.102,-0.1,0,0,0,0,0,0,-0.051,-0.0491,-0.0462,-0.0399,-0.0375,-0.0367,-0.0404,-0.0481,-0.0533,-0.0654,-0.0689,-0.0775,-0.0827,-0.0892,-0.0892,-0.0899,-0.0893,-0.0979,-0.0977,-0.1008,-0.1015,-0.1021,-0.1004,0,0,0,0,0]},{"header":{"parameterUnit":"m.s-1","parameterCategory":2,"la1":30.2991,"la2":30.254,"lo1":-89.0895,"lo2":-89.0444,"dy":0.0017,"dx":0.0017,"nx":28,"ny":28,"refTime":"2023-09-14T09:00:00:Z","depth":"4","parameterNumber":3,"parameterNumberName":"V-component_of_CURRENTS"},"data":[0,0,0,0,0,0,0,0,0,0,0,0,0,0,0,0,0,0,0,0,0,0,0,0,0,0,0,0,0,0,0,0,0,0,0,0,0,0,0,0,0,0,0,0,0,0,0,0,0,0,0,0,0,0,0,0,0,0,-0.0126,-0.0126,0,-0.0093,-0.0092,-0.0092,-0.0059,-0.0058,-0.0058,-0.0057,-0.0011,-0.001,-0.0009,0,0,0,0,0,0,0,0,0,0,0,0,0,-0.018,-0.0179,-0.0126,-0.0126,-0.0125,-0.0093,-0.0092,-0.0092,-0.0059,-0.0058,-0.0058,-0.0057,-0.0011,-0.001,-0.0009,0,0,0,0,0,0,0,0,0,0,0,0,0,-0.0153,-0.0178,-0.0126,-0.0104,-0.0102,-0.0093,-0.0092,-0.0092,-0.0059,-0.0058,-0.0058,-0.0057,-0.0011,-0.001,-0.0009,-0.0018,0,0,-0.0005,-0.0005,0,0,0,0,0,0,0,0,-0.0155,-0.0151,-0.0108,-0.0106,-0.0103,-0.0078,-0.0094,-0.0066,-0.0059,-0.0076,-0.0057,-0.0056,-0.0032,-0.0029,-0.0026,-0.0015,-0.0013,-0.0005,-0.0005,-0.0004,-0.0004,0,0,0,0,0,0,0,-0.0157,-0.0153,-0.0114,-0.0107,-0.0104,-0.0102,-0.0097,-0.0089,-0.0059,-0.0075,-0.0072,-0.0067,-0.0031,-0.0027,-0.0025,-0.0013,-0.0005,-0.0004,-0.0004,-0.0003,0.0009,0.0009,0,0,0,0,0,0,-0.0159,-0.0154,-0.0115,-0.0113,-0.0126,-0.0101,-0.0096,-0.0088,-0.006,-0.0055,-0.0068,-0.0066,-0.003,-0.0026,-0.0023,-0.0021,-0.0004,-0.0003,-0.0002,0.001,0.0009,0.0009,0,0,0,0,0,0,-0.016,-0.0155,-0.0116,-0.0132,-0.0127,-0.0101,-0.0092,-0.0088,-0.0081,-0.0054,-0.0049,-0.0065,-0.0029,-0.0024,-0.0018,-0.0019,-0.0003,-0.0002,0.001,0.001,0.0009,-0.0025,0,0,0,0,0,0,-0.0161,-0.0156,-0.0154,-0.0132,-0.0126,-0.0116,-0.0093,-0.0087,-0.0079,-0.0076,-0.0051,-0.0046,-0.0028,-0.002,-0.0017,-0.0018,-0.0001,0.0011,0.001,0.0009,-0.0023,-0.0026,-0.0029,0,0,0,0,0,-0.0163,-0.016,-0.0154,-0.015,-0.0123,-0.0116,-0.0113,-0.0093,-0.008,-0.0083,-0.0065,-0.0046,-0.0022,-0.002,-0.0016,-0.0016,0.0011,0.001,0.0009,-0.0022,-0.0026,-0.0029,0,0,0,0,0,0,-0.0181,-0.0156,-0.0149,-0.0138,-0.0131,-0.011,-0.0108,-0.0097,-0.0086,-0.0081,-0.0055,-0.0049,-0.004,-0.0029,-0.0027,-0.0015,-0.0001,-0.0001,-0.0026,-0.0029,-0.0032,-0.0044,0.0,0,0,0,0,0,-0.0185,-0.0178,-0.0159,-0.0153,-0.0149,-0.0131,-0.0126,-0.0115,-0.0101,-0.0095,-0.0078,-0.0059,-0.0042,-0.0036,-0.0021,-0.0022,0.001,-0.0018,-0.0021,-0.0023,-0.0031,0.0024,0.0026,0.0006,0.0006,0.0006,0,0,-0.0191,-0.0177,-0.0172,-0.0157,-0.0148,-0.0153,-0.0126,-0.0121,-0.0127,-0.0092,-0.0094,-0.0069,-0.0044,-0.0039,-0.0034,-0.0029,-0.0002,-0.0024,-0.0027,-0.0033,0.0024,0.0026,0.0028,0.0006,0.0006,0.0006,0,0,-0.0203,-0.0187,-0.0187,-0.0187,-0.0177,-0.0168,-0.0169,-0.0154,-0.0147,-0.0149,-0.0118,-0.0099,-0.0083,-0.0063,-0.005,-0.0064,-0.0016,-0.0053,-0.0081,-0.0027,-0.0025,-0.0022,0.002,0.0027,-0.0058,-0.0058,-0.0058,0,-0.0213,-0.0209,-0.0189,-0.0197,-0.0203,-0.0178,-0.0193,-0.0185,-0.0172,-0.017,-0.0155,-0.0117,-0.0096,-0.0078,-0.0081,-0.007,-0.0031,-0.0069,-0.003,-0.0027,-0.0023,0.002,0.0027,-0.006,-0.0059,-0.0059,-0.0059,0,-0.0228,-0.0233,-0.0235,-0.0237,-0.0244,-0.025,-0.0242,-0.0243,-0.023,-0.0219,-0.02,-0.0165,-0.014,-0.0127,-0.0109,-0.0079,-0.0055,-0.0035,-0.002,-0.0023,0.0022,0.0031,-0.0062,-0.0062,-0.0061,-0.0061,0,0,-0.0234,-0.0243,-0.0246,-0.0264,-0.0267,-0.0276,-0.0288,-0.029,-0.0297,-0.027,-0.027,-0.023,-0.0198,-0.0181,-0.0143,-0.0102,-0.0047,-0.0063,-0.006,-0.002,0.0074,0.0048,0.0055,-0.0009,-0.0008,-0.0007,0.0097,0,-0.0254,-0.0278,-0.028,-0.0319,-0.0333,-0.0332,-0.0349,-0.0351,-0.034,-0.0335,-0.0284,-0.0264,-0.022,-0.0201,-0.0152,-0.0073,-0.0026,-0.0078,0.007,0.0074,0.0053,0.0063,-0.0003,0.0103,0.0105,0.0107,0.0108,0,-0.0269,-0.0285,-0.0321,-0.0362,-0.037,-0.0394,-0.0421,-0.043,-0.0415,-0.0403,-0.0366,-0.0322,-0.026,-0.0221,-0.008,-0.0109,-0.0024,0.004,0.0046,0.0037,0.0063,0.0109,0.0124,0.0123,0.0121,0.012,0.0119,0,-0.0281,-0.0319,-0.035,-0.0364,-0.04,-0.0426,-0.0445,-0.0451,-0.046,-0.0437,-0.0428,-0.0352,-0.03,-0.0188,-0.0054,-0.0058,0.0104,0.0117,0.0174,0.0173,0.0182,0.0178,0.0219,0.0219,0.0219,0.0218,0.0218,0,-0.0298,-0.0328,-0.0362,-0.0381,-0.0432,-0.0451,-0.0495,-0.0501,-0.0503,-0.0502,-0.0453,-0.0416,-0.0283,-0.0177,-0.0062,0.0082,0.0109,0.0168,0.0199,0.0164,0.0157,0.0188,0.0183,0.0222,0.0221,0.0221,0.022,0,-0.0307,-0.0323,-0.0368,-0.0416,-0.0438,-0.0474,-0.053,-0.0552,-0.0546,-0.0539,-0.0526,-0.0447,-0.0311,-0.018,0.0003,0.0074,0.0208,0.0257,0.0203,0.0229,0.0241,0.0233,0.0317,0.0317,0.0317,0.0317,0.0317,0,-0.0313,-0.0332,-0.0393,-0.0424,-0.0452,-0.0507,-0.0541,-0.0566,-0.0577,-0.0542,-0.0526,-0.042,-0.0347,-0.0115,0.0017,0.0212,0.024,0.0297,0.0266,0.023,0.0252,0.0244,0.0236,0.0317,0.0317,0.0317,0.0317,0,-0.0329,-0.0347,-0.0382,-0.0438,-0.0487,-0.0542,-0.0584,-0.0592,-0.0595,-0.0592,-0.0512,-0.0412,-0.027,-0.0113,0.0033,0.0178,0.0245,0.0297,0.0298,0.0269,0.0231,0.0251,0.0243,0.0317,0.0317,0.0317,0.0317,0,-0.034,-0.0366,-0.0404,-0.0455,-0.051,-0.055,-0.0581,-0.0583,-0.0592,-0.0548,-0.0513,-0.0378,-0.03,-0.0127,0.0018,0.0137,0.0161,0.0188,0.0195,0.0196,0.0119,0.005,0.0107,0,0,0,0,0,-0.0349,-0.0375,-0.0421,-0.0474,-0.0522,-0.0557,-0.0594,-0.0612,-0.0607,-0.0552,-0.0537,-0.0404,-0.0219,-0.0138,-0.0021,0.0014,0.0179,0.0151,0.0213,0.0316,0.0316,0.0242,0,0,0,0,0,0,-0.0358,-0.0397,-0.0417,-0.0469,-0.0506,-0.0563,-0.0588,-0.059,-0.0558,-0.0534,-0.043,-0.0391,-0.0203,-0.028,-0.002,0.0013,0.0063,0.0237,0.0239,0.0316,0.0316,0.0316,0.024,0,0,0,0,0]}]]